{"data":{"norad_id":39762,"epoch":"2026-09-20T03:28:40.638720Z","epoch_age_seconds":67827,"freshness":"FRESH","line1":"1 39762U 14028B   26263.14491480  .00000084  00000+0  53306-3 0  9993","line2":"2 39762  82.4494  50.9570 0020015 225.9138 134.0294 12.42897725559317","mean_motion":12.42897725,"eccentricity":0.0020015,"inclination_deg":82.4494,"raan_deg":50.957,"arg_perigee_deg":225.9138,"mean_anomaly_deg":134.0294,"bstar":0.00053306,"rev_number":55931,"period_min":115.85828592614,"perigee_km":1478.5864715028,"apogee_km":1510.1000099063,"semimajor_km":7872.4802407046,"source":"CELESTRAK","updated_at":"2026-09-20T09:00:13.970509Z"}}